Flag for Russia Weather past 2 weeks in Volgograd, Russia

Now
52 °F

Light rain. Fog.


Feels Like: 47 °F
Forecast: 29 / 43 °F
Wind: 15 mph from West

Location: Volgograd Airport

Current Time: Oct 22, 2014 at 11:06:28 AM

Latest Report: Oct 22, 2014 at 10:00 AM


Visibility: 2 mi

Pressure: 29.68 "Hg

Humidity: 94%

Dew point: 50 °F

Location of VolgogradLocation

Historic Weather in Volgograd — Graph

°F

Volgograd temperature yesterday

Maximum temperature yesterday: 54 °F (at 1:30 PM)
Minimum temperature yesterday: 45 °F (at 12:00 AM)
Average temperature yesterday: 49 °F

Past Weeks' High & Low Weather Summary

 TemperatureHumidityPressure
High72 °F (Oct 15, 3:00 PM)100% (Oct 14, 7:30 AM)30.63 "Hg (Oct 14, 7:30 AM)
Low21 °F (Oct 20, 5:30 AM)26% (Oct 11, 3:00 PM)29.56 "Hg (Oct 17, 4:00 PM)
Average49 °F69%30.09 "Hg
* Reported Oct 7 10:00 AM — Oct 22 10:00 AM, Volgograd, Weather by CustomWeather, © 2014

Note: Actual official high and low records may vary slightly from our data, if they occured in-between our weather recording intervals... More about our weather records

Advertising

Volgograd weather history for previous 24 hours

 ConditionsComfort  
Time TempWeatherWind HumidityBarometerVisibility
10:00 AM
Oct 22
52 °FLight rain. Fog.15 mph94%29.68 "Hg1 mi
9:30 AM52 °FLight rain. Fog.13 mph94%29.68 "Hg1 mi
9:00 AM52 °FLight rain. Fog.13 mph94%29.65 "Hg2 mi
8:30 AM50 °FLight rain. Fog.13 mph100%29.65 "Hg2 mi
8:00 AM52 °FLight rain. Fog.13 mph94%29.65 "Hg2 mi
7:30 AM52 °FFog.13 mph94%29.65 "Hg2 mi
7:00 AM52 °FFog.15 mph94%29.62 "Hg2 mi
6:30 AM50 °FFog.15 mph100%29.62 "Hg2 mi
6:00 AM52 °FFog.15 mph94%29.62 "Hg2 mi
5:30 AM50 °FFog.20 mph100%29.62 "Hg2 mi
4:30 AM50 °FFog.17 mph100%29.62 "Hg2 mi
4:00 AM50 °FFog.17 mph100%29.62 "Hg2 mi
3:30 AM52 °FFog.15 mph94%29.62 "Hg2 mi
3:00 AM52 °FFog.20 mph94%29.62 "Hg2 mi
2:30 AM52 °FFog.20 mph94%29.65 "Hg2 mi
2:00 AM52 °FFog.17 mph94%29.65 "Hg2 mi
1:30 AM52 °FPassing clouds.17 mph94%29.65 "HgN/A
1:00 AM52 °FPassing clouds.15 mph94%29.62 "HgN/A
12:30 AM52 °FPassing clouds.17 mph100%29.65 "HgN/A
12:00 AM52 °FPassing clouds.20 mph100%29.65 "HgN/A
11:30 PM
Oct 21
52 °FMostly cloudy.17 mph94%29.65 "HgN/A
11:00 PM52 °FMostly cloudy.20 mph94%29.65 "HgN/A
10:30 PM52 °FMostly cloudy.20 mph100%29.65 "HgN/A
10:00 PM52 °FPassing clouds.20 mph100%29.65 "HgN/A
9:30 PM52 °FPassing clouds.20 mph100%29.65 "HgN/A
9:00 PM52 °FPassing clouds.20 mph94%29.65 "HgN/A
8:30 PM52 °FPassing clouds.17 mph94%29.65 "HgN/A
8:00 PM52 °FPartly cloudy.22 mph100%29.65 "HgN/A
7:30 PM52 °FPassing clouds.22 mph100%29.65 "HgN/A
7:00 PM52 °FPassing clouds.20 mph94%29.65 "HgN/A
6:30 PM52 °FFog.20 mph100%29.62 "Hg2 mi
6:00 PM52 °FFog.20 mph100%29.62 "Hg2 mi
5:30 PM52 °FSprinkles. Fog.20 mph100%29.65 "Hg2 mi
5:00 PM52 °FFog.22 mph100%29.65 "Hg2 mi
4:30 PM52 °FFog.22 mph100%29.65 "Hg2 mi
4:00 PM54 °FFog.17 mph94%29.65 "Hg2 mi
3:30 PM52 °FSprinkles. Fog.17 mph100%29.65 "Hg2 mi
3:00 PM54 °FFog.20 mph94%29.65 "Hg2 mi
2:30 PM52 °FFog.20 mph100%29.65 "Hg2 mi
2:00 PM54 °FFog.20 mph94%29.65 "Hg2 mi
1:30 PM54 °FFog.22 mph94%29.62 "Hg2 mi
1:00 PM52 °FFog.20 mph100%29.65 "Hg2 mi
12:30 PM50 °FFog.20 mph100%29.65 "Hg1 mi
12:00 PM50 °FLight rain. Fog.20 mph94%29.65 "Hg1 mi
11:30 AM48 °FLight rain. Fog.20 mph100%29.65 "Hg2 mi
11:00 AM48 °FFog.20 mph100%29.65 "Hg1 mi
Weather by CustomWeather, © 2014

See weather overviewHow to use our weather pages